| time (UTC) | temp F | wind direction | speed MPH | gust MPH | rain 1hr in | rain 24hr in | rain mn in | humidity % | barometer mb |
| 20260905060030 | 55 | 22 | 15.0 | 30.0 | 0.09 | 1.18 | 0.33 | 89 | 1001.7 |
| 20260905054515 | 56 | 49 | 16.0 | 31.0 | 0.09 | 1.17 | 0.31 | 89 | 1001.8 |
| 20260905053026 | 56 | 349 | 15.0 | 25.0 | 0.08 | 1.13 | 0.28 | 89 | 1001.8 |
| 20260905051507 | 56 | 16 | 8.0 | 13.0 | 0.07 | 1.12 | 0.27 | 89 | 1002.8 |
| 20260905050003 | 57 | 24 | 13.0 | 24.0 | 0.06 | 1.09 | 0.24 | 89 | 1003.2 |
| 20260905044605 | 57 | 328 | 10.0 | 19.0 | 0.05 | 1.07 | 0.22 | 89 | 1003.4 |
| 20260905043057 | 57 | 67 | 12.0 | 31.0 | 0.09 | 1.06 | 0.21 | 89 | 1002.9 |
| 20260905041556 | 57 | 360 | 10.0 | 22.0 | 0.13 | 1.05 | 0.20 | 89 | 1003.2 |
| 20260905040051 | 57 | 80 | 11.0 | 20.0 | 0.18 | 1.03 | 0.18 | 89 | 1003.9 |
| 20260905034551 | 58 | 55 | 12.0 | 25.0 | 0.21 | 1.02 | 0.17 | 89 | 1003.3 |
| 20260905033044 | 58 | 44 | 12.0 | 23.0 | 0.20 | 0.98 | 0.13 | 89 | 1003.5 |
| 20260905031538 | 59 | 65 | 13.0 | 24.0 | 0.18 | 0.91 | 0.06 | 89 | 1003.6 |
| 20260905030038 | 60 | 89 | 16.0 | 27.0 | 0.17 | 0.85 | 0.00 | 89 | 1003.4 |
| 20260905023027 | 59 | 5 | 10.0 | 19.0 | 0.15 | 0.77 | 0.77 | 89 | 1003.1 |
| 20260905021524 | 60 | 59 | 17.0 | 30.0 | 0.13 | 0.73 | 0.73 | 89 | 1002.7 |
| 20260905020033 | 60 | 10 | 13.0 | 26.0 | 0.08 | 0.68 | 0.68 | 89 | 1003.4 |
| 20260905014517 | 60 | 29 | 11.0 | 19.0 | 0.05 | 0.65 | 0.65 | 89 | 1003.8 |
| 20260905013013 | 60 | 19 | 9.0 | 19.0 | 0.04 | 0.62 | 0.62 | 89 | 1004.2 |
| 20260905011508 | 60 | 346 | 4.0 | 10.0 | 0.03 | 0.61 | 0.61 | 90 | 1004.7 |
| 20260905010009 | 59 | 65 | 4.0 | 11.0 | 0.04 | 0.60 | 0.60 | 90 | 1004.7 |
| 20260905004504 | 60 | 37 | 8.0 | 24.0 | 0.04 | 0.60 | 0.60 | 89 | 1004.7 |
| 20260905003002 | 60 | 25 | 13.0 | 27.0 | 0.03 | 0.57 | 0.57 | 89 | 1004.8 |